This is the latest recevied weather packets stored in our database for station/object K6GMW. If no packets are shown the sender has not sent any weather packets the latest 10 day(s).
| Time | Temp. | Humidity | Pressure | Rain* | Wind** | Luminosity | Snow |
|---|---|---|---|---|---|---|---|
| 1777762647 | 23.89° C | 37% | 1019.7 hPa | 0 mm | - | 255 W/m² | - |
| 1777762344 | 23.89° C | 34% | 1019.8 hPa | 0 mm | - | 276 W/m² | - |
| 1777762040 | 23.89° C | 34% | 1019.9 hPa | 0 mm | - | 305 W/m² | - |
| 1777761737 | 23.89° C | 36% | 1019.9 hPa | 0 mm | - | 320 W/m² | - |
| 1777761434 | 23.89° C | 34% | 1019.9 hPa | 0 mm | - | 342 W/m² | - |
| 1777761132 | 23.89° C | 34% | 1019.9 hPa | 0 mm | - | 364 W/m² | - |
| 1777760830 | 23.89° C | 33% | 1019.9 hPa | 0 mm | - | 386 W/m² | - |
| 1777760526 | 24.44° C | 35% | 1020 hPa | 0 mm | - | 413 W/m² | - |
| 1777760222 | 23.89° C | 37% | 1019.9 hPa | 0 mm | - | 440 W/m² | - |
| 1777759919 | 23.89° C | 35% | 1019.9 hPa | 0 mm | - | 454 W/m² | - |
| 1777759615 | 23.89° C | 34% | 1019.8 hPa | 0 mm | - | 484 W/m² | - |
| 1777759311 | 23.89° C | 34% | 1019.8 hPa | 0 mm | - | 500 W/m² | - |
| 1777759009 | 23.89° C | 34% | 1019.7 hPa | 0 mm | - | 525 W/m² | - |
| 1777758705 | 23.89° C | 35% | 1019.8 hPa | 0 mm | - | 545 W/m² | - |
| 1777758403 | 23.89° C | 36% | 1019.7 hPa | 0 mm | - | 578 W/m² | - |
| 1777758099 | 23.89° C | 34% | 1020 hPa | 0 mm | - | 587 W/m² | - |
| 1777757797 | 23.89° C | 36% | 1019.9 hPa | 0 mm | - | 618 W/m² | - |
| 1777757494 | 23.89° C | 38% | 1020.1 hPa | 0 mm | - | 638 W/m² | - |
| 1777757193 | 23.89° C | 35% | 1019.9 hPa | 0 mm | - | 688 W/m² | - |
| 1777756891 | 23.89° C | 38% | 1019.9 hPa | 0 mm | - | 713 W/m² | - |
| 1777756586 | 23.89° C | 38% | 1020.1 hPa | 0 mm | - | 769 W/m² | - |
| 1777756284 | 23.89° C | 33% | 1020.1 hPa | 0 mm | - | 219 W/m² | - |
| 1777755981 | 23.89° C | 34% | 1020.4 hPa | 0 mm | - | 779 W/m² | - |
| 1777755678 | 23.89° C | 36% | 1020.3 hPa | 0 mm | - | 811 W/m² | - |
| 1777755374 | 23.33° C | 35% | 1020.5 hPa | 0 mm | - | 778 W/m² | - |
* Rain latest hour (hover to see other rain measurements)
** Current wind speed in m/s (hover to see current wind gust speed)